Accueil
METAR-TAF:

METAR-TAF

Aéroports :

Comté de Franklin, Vermont, États-Unis

latitude: 44-56-25N, longitude: 073-05-51W, altitude: 69 m

Observation

Le bulletin a été fait il y a 12 minutes, à 21:15 UTC
Vent calme
Température 22°C
Humidité 23%
Pression 1017 hPa
Visibilité: 16.1 km
Ciel clair

METAR: KFSO 242115Z AUTO 00000KT 10SM CLR 22/00 A3002 RMK AO2 T02200002

Heure: 17:27 (21:27 UTC)


TAF: absent

Observations et prévisions météorologiques de plus de 4000 aéroports (messages METAR et TAF).

Les stations disponibles sont représentées par des disques jaunes et rouges sur la carte.

Passer la souris dessus pour voir le nom de la station.

Cliquer dessus pour voir les observations et prévisions météorologiques.

Pour changer de carte: cliquez sur les boutons verts avec une croix noire pour zoomer, sur le bouton vert avec un tiret pour effectuer un zoom arrière, ou sur les flèches vertes pour les cartes adjacentes.


METAR-TAF: